Regional Weather Roundup
Issued by NWS

Home | Current Version | Previous Version | Graphics & Text | Print | Product List | Glossary Off
Versions: 1 2 3 4 5 6 7 8 9 10 11 12 13 14 15 16 17 18 19 20 21 22 23 24 25 26 27 28 29 30 31 32 33 34 35 36 37 38 39 40 41 42 43 44 45 46 47 48 49 50

000
ASUS43 KTOP 172159
RWRKS

WEATHER ROUNDUP FOR KANSAS
NATIONAL WEATHER SERVICE GOODLAND KS
500 PM CDT THU APR 17 2014

NOTE:  "FAIR" INDICATES FEW OR NO CLOUDS BELOW 12,000 FEET WITH NO
SIGNIFICANT WEATHER AND/OR OBSTRUCTIONS TO VISIBILITY.

KSZ001>006-013>018-027>032-041>047-172300-
NORTHWEST KANSAS

CITY           SKY/WX    TMP DP  RH WIND       PRES   REMARKS
GOODLAND       CLOUDY    52  36  54 S21G26    30.16F
HAYS           SUNNY     55  30  38 CALM      30.22F
HILL CITY      SUNNY     57  30  35 CALM      30.20F
RUSSELL        SUNNY     56  29  35 CALM      30.21F
$$

KSZ061>065-074>080-084>089-172300-
SOUTHWEST KANSAS

CITY           SKY/WX    TMP DP  RH WIND       PRES   REMARKS
DODGE CITY     CLOUDY    50  41  71 CALM      30.24F
ELKHART          N/A     51  37  58 E9          N/A
GARDEN CITY    MOSUNNY   50  41  71 S7        30.22F
GREAT BEND     SUNNY     55  30  38 S7        30.21F
LIBERAL        CLOUDY    48  39  71 E9        30.24F
$$

KSZ066>073-081>083-090>101-172300-
SOUTHEAST KANSAS

CITY           SKY/WX    TMP DP  RH WIND       PRES   REMARKS
CHANUTE        CLOUDY    46  35  65 NE7       30.26F
COFFEYVILLE    CLOUDY    54  38  54 N8        30.26R
HUTCHINSON     CLOUDY    52  31  44 VRB3      30.25F
NEWTON         PTSUNNY   48  30  49 E6        30.28F
PARSONS        LGT RAIN  50  35  56 N6        30.27S
WICHITA INTL   CLOUDY    48  35  60 N7        30.26F
WICHITA JABRA  CLOUDY    47  36  65 NE7       30.26F
WINFIELD       CLOUDY    48  35  60 N12       30.27S
$$

KSZ007>012-019>026-033>040-048>060-102>105-172300-
NORTHEAST KANSAS

CITY           SKY/WX    TMP DP  RH WIND       PRES   REMARKS
CONCORDIA      SUNNY     55  28  35 VRB5      30.23F
EMPORIA        CLOUDY    46  33  60 NE5       30.27S
LAWRENCE       CLOUDY    50  34  54 CALM      30.28S
MANHATTAN      SUNNY     56  32  40 VRB3      30.24F
OLATHE IND     CLOUDY    47  34  60 CALM      30.28S
OLATHE EXE     CLOUDY    45  33  63 CALM      30.27S
SALINA         MOSUNNY   58  29  33 VRB3      30.24F
TOPEKA BILLARD MOSUNNY   52  34  50 E7        30.27F
TOPEKA FORBES  PTSUNNY   50  32  50 NW3       30.26F
$$



USA.gov is the U.S. government's official web portal to all federal, state and local government web resources and services.